CW0526 Weather Reports


Display with metric or nautical units.
time (UTC)temp
F
wind
direction
speed
MPH
gust
MPH
rain 1hr
in
rain 24hr
in
rain mn
in
humidity
%
barometer
mb
20260506190553 50 261 1.0 3.0 0.00 0.00 0.00 67 1013.8
20260506190054 50 259 1.0 7.0 0.00 0.00 0.00 67 1013.8
20260506184553 51 228 2.0 5.0 0.00 0.00 0.00 63 1013.8
20260506183054 52 249 1.0 7.0 0.00 0.00 0.00 64 1013.7
20260506181553 52 221 2.0 6.0 0.00 0.00 0.00 62 1013.7
20260506181053 52 244 3.0 8.0 0.00 0.00 0.00 62 1013.6
20260506180055 53 276 2.0 6.0 0.00 0.00 0.00 61 1013.6
20260506170553 53 103 1.0 3.0 0.00 0.00 0.00 59 1013.7
20260506164553 53 107 1.0 3.0 0.00 0.00 0.00 58 1013.9
20260506164053 53 102 2.0 3.0 0.00 0.00 0.00 58 1013.9
20260506163553 53 96 2.0 3.0 0.00 0.00 0.00 57 1013.9
20260506161553 54 91 2.0 6.0 0.00 0.00 0.00 55 1013.9
20260506161053 54 91 2.0 6.0 0.00 0.00 0.00 54 1014.0
20260506160553 54 90 1.0 3.0 0.00 0.00 0.00 53 1014.0
20260506154553 55 109 3.0 6.0 0.00 0.00 0.00 54 1014.3
20260506153553 55 110 3.0 6.0 0.00 0.00 0.00 53 1014.3
20260506151054 56 116 3.0 6.0 0.00 0.00 0.00 52 1014.5
20260506144554 56 102 3.0 6.0 0.00 0.00 0.00 51 1014.7
20260506141053 57 19 3.0 8.0 0.00 0.00 0.00 50 1014.9
20260506134553 57 61 2.0 5.0 0.00 0.00 0.00 49 1015.2
20260506134053 57 64 1.0 8.0 0.00 0.00 0.00 50 1015.2
20260506131054 58 45 3.0 10.0 0.00 0.00 0.00 50 1015.3
20260506130554 58 42 3.0 8.0 0.00 0.00 0.00 51 1015.2
20260506124554 56 130 4.0 7.0 0.00 0.00 0.00 52 1015.3
20260506123553 55 138 4.0 9.0 0.00 0.00 0.00 52 1015.5
20260506123055 56 73 3.0 10.0 0.00 0.00 0.00 51 1015.4
20260506121053 55 54 1.0 3.0 0.00 0.00 0.00 49 1015.6
20260506120554 55 57 2.0 8.0 0.00 0.00 0.00 52 1015.6
20260506120055 56 94 3.0 8.0 0.00 0.00 0.00 52 1015.6
20260506111553 54 81 2.0 6.0 0.00 0.00 0.00 53 1016.1
20260506111054 54 75 5.0 8.0 0.00 0.00 0.00 54 1016.1
20260506110055 53 59 3.0 8.0 0.00 0.00 0.00 56 1016.1
20260506104053 53 88 2.0 8.0 0.00 0.00 0.00 53 1016.2
20260506101553 52 120 2.0 7.0 0.00 0.00 0.00 53 1016.4
20260506100553 53 32 3.0 6.0 0.00 0.00 0.00 53 1016.5
20260506091553 51 48 5.0 9.0 0.00 0.00 0.00 59 1016.9
20260506091053 50 53 3.0 8.0 0.00 0.00 0.00 59 1016.9
20260506090105 49 66 5.0 10.0 0.00 0.00 0.00 61 1016.9
20260506084554 48 95 2.0 9.0 0.00 0.00 0.00 63 1017.1
20260506083553 48 29 4.0 9.0 0.00 0.00 0.00 64 1017.1
20260506081554 47 35 4.0 12.0 0.00 0.00 0.00 66 1017.1
20260506081054 47 49 5.0 10.0 0.00 0.00 0.00 66 1017.1
20260506080554 47 71 5.0 12.0 0.00 0.00 0.00 67 1017.0
20260506073055 44 70 2.0 9.0 0.00 0.00 0.00 74 1017.0
20260506071553 44 57 2.0 5.0 0.00 0.00 0.00 76 1017.1
20260506070554 43 54 2.0 3.0 0.00 0.00 0.00 77 1017.1
20260506061054 41 53 2.0 3.0 0.00 0.00 0.00 79 1017.1
20260506051054 40 67 0.0 0.0 0.00 0.00 0.00 80 1017.2
20260506043554 40 69 0.0 1.0 0.00 0.00 0.00 79 1017.2
20260506043055 40 69 0.0 0.0 0.00 0.00 0.00 79 1017.1
20260506041554 40 69 0.0 1.0 0.00 0.00 0.00 78 1017.1
20260506041054 40 69 1.0 2.0 0.00 0.00 0.00 78 1017.1
20260506040056 41 69 0.0 3.0 0.00 0.00 0.00 78 1017.1
20260506034554 41 71 1.0 3.0 0.00 0.00 0.00 77 1017.1
20260506033554 41 71 1.0 3.0 0.00 0.00 0.00 77 1017.2
20260506031054 41 69 1.0 3.0 0.00 0.00 0.00 77 1017.2
20260506030554 42 71 1.0 2.0 0.00 0.00 0.00 77 1017.3
20260506024554 42 73 1.0 2.0 0.00 0.00 0.00 76 1017.3
20260506024054 42 72 1.0 3.0 0.00 0.00 0.00 76 1017.3
20260506023555 42 73 1.0 3.0 0.00 0.00 0.00 76 1017.2
20260506021054 42 52 2.0 3.0 0.00 0.00 0.00 76 1017.4
20260506014554 42 61 1.0 3.0 0.00 0.00 0.00 75 1017.4
20260506014054 42 60 1.0 3.0 0.00 0.00 0.00 75 1017.4
20260506013555 42 61 2.0 3.0 0.00 0.00 0.00 75 1017.4
20260506011554 43 55 1.0 3.0 0.00 0.00 0.00 75 1017.7
20260506010056 43 50 1.0 3.0 0.00 0.00 0.00 75 1017.7
20260506004055 43 38 2.0 5.0 0.00 0.00 0.00 74 1017.8
20260506003055 43 45 1.0 3.0 0.00 0.00 0.00 74 1017.8
20260506001554 43 32 2.0 5.0 0.00 0.00 0.00 74 1017.7
20260506000554 43 46 2.0 3.0 0.00 0.00 0.00 74 1017.6
20260505233554 43 27 3.0 6.0 0.00 0.00 0.00 73 1017.5
20260505230056 44 63 3.0 9.0 0.00 0.00 0.00 72 1017.8
20260505224554 44 37 3.0 9.0 0.00 0.00 0.00 72 1017.8
20260505224054 44 63 2.0 7.0 0.00 0.00 0.00 72 1017.8
20260505223554 44 54 2.0 8.0 0.00 0.00 0.00 72 1017.8
20260505223056 44 34 3.0 9.0 0.00 0.00 0.00 72 1017.7
20260505221554 44 30 3.0 6.0 0.00 0.00 0.00 72 1017.8
20260505214555 45 38 5.0 12.0 0.00 0.00 0.00 71 1017.6
20260505214054 45 54 5.0 13.0 0.00 0.00 0.00 71 1017.6
20260505213056 45 67 5.0 12.0 0.00 0.00 0.00 71 1017.6
20260505211554 45 71 6.0 10.0 0.00 0.00 0.00 71 1017.6
20260505210555 45 44 4.0 7.0 0.00 0.00 0.00 71 1017.5
20260505204554 45 37 4.0 12.0 0.00 0.00 0.00 71 1017.5
20260505204054 45 37 3.0 10.0 0.00 0.00 0.00 71 1017.5
20260505203554 45 53 5.0 15.0 0.00 0.00 0.00 71 1017.4
20260505203055 45 0 3.0 13.0 0.00 0.00 0.00 71 1017.3
20260505201554 46 25 4.0 9.0 0.00 0.00 0.00 71 1017.3
20260505200057 46 80 5.0 12.0 0.00 0.00 0.00 72 1017.2
20260505193554 46 48 5.0 13.0 0.00 0.00 0.00 70 1017.0
20260505191555 47 36 6.0 13.0 0.00 0.00 0.00 70 1016.8